TimeCST,TemperatureF,Dew PointF,Humidity,Sea Level PressureIn,VisibilityMPH,Wind Direction,Wind SpeedMPH,Gust SpeedMPH,PrecipitationIn,Events,Conditions,WindDirDegrees,DateUTC
12:00 AM,70,63,71,29.83,12,Calm,Calm,,,,Clear,,2012-10-12 06:00:00
12:00 AM,69.8,62.6,78,30.03,-9999.0,Calm,Calm,-,N/A,,Clear,0,2012-10-12 06:00:00
1:00 AM,71.6,62.6,73,30.00,-9999.0,ESE,9.2,-,N/A,,Clear,110,2012-10-12 07:00:00
2:00 AM,69.8,62.6,78,29.97,-9999.0,East,6.9,-,N/A,,Clear,100,2012-10-12 08:00:00
3:00 AM,70,62,67,29.83,12,ESE,4.6,,,,Clear,120,2012-10-12 09:00:00
3:00 AM,69.8,60.8,73,29.96,-9999.0,ESE,4.6,-,N/A,,Clear,120,2012-10-12 09:00:00
4:00 AM,68.0,60.8,78,29.97,-9999.0,NE,2.3,-,N/A,,Clear,50,2012-10-12 10:00:00
5:00 AM,68.0,60.8,78,-9999,6.2,East,5.8,-,N/A,,Scattered Clouds,90,2012-10-12 11:00:00
6:00 AM,67,62,77,29.85,12,ENE,5.8,,,,Scattered Clouds,60,2012-10-12 12:00:00
6:00 AM,68.0,60.8,78,29.99,6.2,ENE,5.8,-,N/A,,Mostly Cloudy,60,2012-10-12 12:00:00
7:00 AM,73.4,62.6,69,30.02,6.2,East,10.4,-,N/A,,Scattered Clouds,100,2012-10-12 13:00:00
8:00 AM,77.0,60.8,57,30.02,6.2,East,10.4,-,N/A,,Partly Cloudy,100,2012-10-12 14:00:00
9:00 AM,80,60,41,29.85,12,East,9.2,,,,Scattered Clouds,90,2012-10-12 15:00:00
9:00 AM,78.8,60.8,54,30.04,6.2,East,9.2,-,N/A,,Partly Cloudy,90,2012-10-12 15:00:00
10:00 AM,82.4,60.8,48,30.04,6.2,ENE,11.5,-,N/A,,Partly Cloudy,70,2012-10-12 16:00:00
11:00 AM,82.4,60.8,48,30.02,6.2,East,8.1,-,N/A,,Partly Cloudy,90,2012-10-12 17:00:00
12:00 PM,84.2,60.8,45,29.99,6.2,SE,6.9,-,N/A,,Scattered Clouds,140,2012-10-12 18:00:00
12:23 PM,78.8,68.0,69,29.98,6.2,SW,6.9,-,N/A,,Scattered Clouds,230,2012-10-12 18:23:00
1:00 PM,77.0,68.0,74,29.97,6.2,West,9.2,-,N/A,,Scattered Clouds,260,2012-10-12 19:00:00
2:00 PM,78.8,69.8,74,29.94,6.2,WSW,9.2,-,N/A,,Partly Cloudy,250,2012-10-12 20:00:00
3:00 PM,76,70,75,29.79,12,WSW,13.8,,,,Overcast,250,2012-10-12 21:00:00
3:00 PM,77.0,69.8,78,29.94,6.2,WSW,13.8,-,N/A,,Mostly Cloudy,250,2012-10-12 21:00:00
4:00 PM,69.8,66.2,88,29.97,1.2,West,12.7,-,N/A,Rain,Heavy Rain Showers,260,2012-10-12 22:00:00
4:05 PM,68.0,66.2,94,29.97,0.3,WSW,11.5,-,N/A,Fog-Rain,Heavy Rain Showers,250,2012-10-12 22:05:00
4:25 PM,68.0,66.2,94,29.98,1.6,WSW,9.2,-,N/A,Rain,Light Rain,250,2012-10-12 22:25:00
5:00 PM,68.0,66.2,94,29.99,5.0,West,4.6,-,N/A,Fog,Mostly Cloudy,270,2012-10-12 23:00:00
6:00 PM,68,66,92,29.88,9,ESE,3.5,,,,Overcast,110,2012-10-13 00:00:00
6:00 PM,68.0,66.2,94,30.00,6.2,ESE,3.5,-,N/A,,Mostly Cloudy,110,2012-10-13 00:00:00
7:00 PM,68.0,66.2,94,29.99,6.2,East,2.3,-,N/A,,Mostly Cloudy,80,2012-10-13 01:00:00
8:00 PM,68.0,66.2,94,30.00,6.2,East,4.6,-,N/A,,Scattered Clouds,100,2012-10-13 02:00:00
9:00 PM,68.0,64.4,88,30.01,6.2,ENE,2.3,-,N/A,,Scattered Clouds,70,2012-10-13 03:00:00
10:00 PM,68.0,62.6,83,30.03,-9999.0,NNE,8.1,-,N/A,,Clear,30,2012-10-13 04:00:00
11:00 PM,66.2,62.6,88,30.03,-9999.0,ENE,3.5,-,N/A,,Clear,60,2012-10-13 05:00:00